Location: Sungai Bunut
(2.6333°N, 113.7333°E)
Time: 09:22:08
(UTC+00:00)

Transit 2A - Pass Details

Date: 08 December 2023
Orbit: 599 x 953 km, 66.7° (Epoch: 01 March)

Event Time Altitude Azimuth Distance (km) Brightness Sun altitude
Rises 17:05:53 0° 349° (N) 2,925 - -66.7°
Reaches altitude 10° 17:08:06 10° 354° (N) 2,057 - -66.4°
Maximum altitude 17:12:38 53° 71° (ENE) 856 - -65.8°
Drops below altitude 10° 17:17:38 10° 147° (SSE) 2,270 - -65.1°
Sets 17:20:12 0° 152° (SSE) 3,259 - -64.7°
